Location: La Fredeussais
(48.1780°N, 1.3980°W)
Time: 02:39:57
(UTC+00:00)

Resurs 01 Rocket - Pass Details

Date: 09 May 2021
Orbit: 633 x 645 km, 97.9° (Epoch: 13 June)

Event Time Altitude Azimuth Distance (km) Brightness Sun altitude
Exits shadow 20:53:03 - 178° (S) 2,202 4.0 -11.9°
Reaches altitude 10° 20:53:28 10° 179° (S) 2,037 3.8 -12.0°
Maximum altitude 20:57:51 59° 259° (W) 747 2.1 -12.5°
Drops below altitude 10° 21:02:16 10° 339° (NNW) 2,048 5.4 -13.0°
Sets 21:04:31 0° 344° (NNW) 2,961 6.3 -13.2°
